Погода в Вэйхае

Китай     37°27′39″N   122°08′00″E
темп.,
°C
ветер,
м/с
пор.,
м/с
влажн.,
%
обл.,
%
осадки,
мм/ч
давл.,
гПа
погр.,
м
9 мая, вс
вс923:00+12ююз4448100 0.0 100826
02:00+11ююз44475 0.0 100938
05:00+11юз454527 0.0 101049
08:00+15зюз224770 0.0 1011122
11:00+16св334481 0.0 1011570
14:00+15всв56565 0.0 1010232
17:00+17ю564555 0.0 1008157
20:00+14ююв335472 0.0 101019
10 мая, пн
пн1023:00+14юв3455100 0.0 101067
02:00+12ссв3472100 0.1 101240
05:00+10в71291100 8.8 1012571
08:00+10вюв91295100 20.5 1013568
11:00+10вюв81093100 4.8 1013532
14:00+11вюв799186 5.1 1013471
17:00+11вюв7992100 0.0 1013428
20:00+10вюв51194100 0.0 1014416
11 мая, вт
вт1123:00+10в4991100 0.0 1015270
02:00+10в499021 0.0 1014230
05:00+10в6119089 0.0 1014269
08:00+11в6128531 0.0 1015353
11:00+13в698543 0.0 1014336
14:00+13вюв5784100 0.0 1013267
17:00+13юв4585100 0.1 1012148
20:00+13ююв3390100 0.4 101263
12 мая, ср
ср1223:00+14ююв3786100 0.0 1012146
02:00+13ююв1385100 0.1 101299
05:00+14ююв3679100 0.0 1011146
08:00+14ююв367597 0.0 1012158
11:00+16юв456624 0.0 1012262
14:00+17юв68726 0.0 1010287
17:00+16ююв567936 0.0 1010166
20:00+14ююв35890 0.0 101173
13 мая, чт
чт1323:00+14ю34910 0.0 101236
02:00+13ююв22930 0.0 101211
05:00+13ююв33940 0.0 101124
08:00+16ююв34840 0.0 1012158
11:00+19юв34710 0.0 1011360
14:00+19в45731 0.0 1010490
17:00+19юв56720 0.0 1009290
20:00+16ююв33860 0.0 101019